Voltar ao catálogo

SL-8 R/B

AtivoVLEO
NORAD 3230·ROCKET BODY·🇷🇺 Russia

Lançado May 7, 1968 de Plesetsk Cosmodrome

Loading…

Próximas Passagens (próximas 24 horas)

TLE

AtualizadoSource: Space-Track

Época: Sep 14, 2026, 12:22 UTC

1  3230U 68040B   26257.51546610  .00001786  00000-0  13096-3 0  9990
2  3230  74.0282 287.5442 0022915  53.8566 306.4739 15.04200508118396

Acompanhe SL-8 R/B em tempo real com AllMySat

Download on the App Store